TimeAKST,TemperatureF,Dew PointF,Humidity,Sea Level PressureIn,VisibilityMPH,Wind Direction,Wind SpeedMPH,Gust SpeedMPH,PrecipitationIn,Events,Conditions,WindDirDegrees,DateUTC
12:53 AM,32.0,10.9,42,30.61,10.0,NNE,15.0,20.7,N/A,,Clear,30,2014-02-03 09:53:00
1:53 AM,30.9,10.9,43,30.61,10.0,NNE,17.3,25.3,N/A,,Clear,20,2014-02-03 10:53:00
2:53 AM,30.0,10.9,45,30.61,10.0,NNE,18.4,27.6,N/A,,Clear,30,2014-02-03 11:53:00
3:53 AM,30.0,10.9,45,30.62,10.0,NNE,18.4,25.3,N/A,,Clear,30,2014-02-03 12:53:00
4:53 AM,28.9,10.9,47,30.62,10.0,NNE,21.9,31.1,N/A,,Clear,30,2014-02-03 13:53:00
5:53 AM,28.0,10.0,47,30.64,10.0,NNE,20.7,33.4,N/A,,Clear,30,2014-02-03 14:53:00
6:53 AM,27.0,10.0,49,30.65,10.0,NNE,21.9,34.5,N/A,,Clear,20,2014-02-03 15:53:00
7:53 AM,27.0,9.0,47,30.66,10.0,NNE,24.2,31.1,N/A,,Clear,30,2014-02-03 16:53:00
8:53 AM,26.1,9.0,49,30.68,10.0,NNE,20.7,31.1,N/A,,Clear,20,2014-02-03 17:53:00
9:53 AM,26.1,8.1,47,30.71,10.0,NNE,19.6,31.1,N/A,,Clear,30,2014-02-03 18:53:00
10:53 AM,26.1,8.1,47,30.71,10.0,NNE,25.3,36.8,N/A,,Clear,30,2014-02-03 19:53:00
11:53 AM,28.0,8.1,43,30.71,10.0,NNE,27.6,36.8,N/A,,Clear,30,2014-02-03 20:53:00
12:53 PM,28.9,8.1,41,30.70,10.0,NE,27.6,36.8,N/A,,Clear,40,2014-02-03 21:53:00
1:53 PM,28.9,8.1,41,30.71,10.0,NNE,25.3,35.7,N/A,,Clear,30,2014-02-03 22:53:00
2:53 PM,28.9,8.1,41,30.71,10.0,NNE,24.2,33.4,N/A,,Clear,30,2014-02-03 23:53:00
3:53 PM,28.0,8.1,43,30.72,10.0,NNE,25.3,35.7,N/A,,Clear,20,2014-02-04 00:53:00
4:53 PM,27.0,8.1,45,30.75,10.0,NNE,16.1,32.2,N/A,,Clear,30,2014-02-04 01:53:00
5:53 PM,26.1,7.0,44,30.76,10.0,NNE,21.9,32.2,N/A,,Clear,30,2014-02-04 02:53:00
6:53 PM,26.1,7.0,44,30.76,10.0,NNE,23.0,34.5,N/A,,Clear,30,2014-02-04 03:53:00
7:53 PM,26.1,6.1,43,30.77,10.0,NNE,26.5,33.4,N/A,,Clear,30,2014-02-04 04:53:00
8:53 PM,25.0,6.1,45,30.78,10.0,NNE,24.2,35.7,N/A,,Clear,30,2014-02-04 05:53:00
9:53 PM,24.1,6.1,46,30.79,10.0,NE,26.5,32.2,N/A,,Clear,40,2014-02-04 06:53:00
10:53 PM,24.1,6.1,46,30.81,10.0,NNE,24.2,34.5,N/A,,Clear,30,2014-02-04 07:53:00
11:53 PM,24.1,5.0,44,30.82,10.0,NNE,23.0,34.5,N/A,,Clear,20,2014-02-04 08:53:00